Location: Bletchingley
(51.2333°N, 0.1000°W)
Time: 04:47:34
(UTC+00:00)

SJ 16-02 - Pass Details

Date: 18 September 2020
Orbit: 606 x 616 km, 75.0° (Epoch: 20 October)

Event Time Altitude Azimuth Distance (km) Brightness Sun altitude
Rises 19:37:11 0° 235° (SW) 2,859 5.3 -14.6°
Reaches altitude 10° 19:39:42 10° 248° (WSW) 1,959 4.6 -15.0°
Maximum altitude 19:43:24 26° 306° (NW) 1,201 3.7 -15.5°
Drops below altitude 10° 19:47:08 10° 4° (N) 1,969 4.2 -16.0°
Sets 19:49:41 0° 17° (NNE) 2,878 4.9 -16.4°
